Find Huanjing Jianzai 1B

NORAD ID: 33321 Int'l Des: 2008-041 Owner: ZZWYZ Country: CN operational
LEOCIRCULARRETROGRADESSO

实时位置

正在加载3D地球...

关于 Huanjing Jianzai 1B

正在加载描述...

即将过境

Passes for default location (London). Set your location on the main map for personalized predictions.

高度历史

Loading altitude history...

两行轨道根数

1 33321U 08041B 26106.94878153 .00000668 00000-0 87124-4 0 9991
2 33321 97.6502 98.5242 0037281 26.7386 333.5740 14.83204515949332
Epoch: Apr 16, 2026 • Age: 10 hours

当前状态

高度 635.6 km
速度 7.54 km/s
星下点 40.35°N, 56.69°W
发射日期 Sep 6, 2008
运行时间 17.6 years
类型 other

技术详情

分类 Payload
质量 510.00 kg
干质量 510.00 kg
总质量 510.00 kg
长度 1.40 m
直径 1.00 m
跨度 4.00 m
形状 Box + 2 Pan
制造商 DFHZ
平台类型 CAST-968
阶段状态 In Orbit
所有者/国家 ZZWYZ/CN

Most Searched